CW0028 Weather Reports


time (UTC)temp
C
wind
direction
speed
KPH
gust
KPH
rain 1hr
cm
rain 24hr
cm
rain mn
cm
humidity
%
barometer
mb
20260506143031 17 136 8.0 19.3 0.00 0.00 0.00 56 1009.8
20260506142531 17 143 6.4 24.1 0.00 0.00 0.00 55 1009.8
20260506142029 17 89 8.0 24.1 0.00 0.00 0.00 56 1009.9
20260506141530 17 112 6.4 16.1 0.00 0.00 0.00 55 1010.0
20260506141032 17 86 4.8 22.5 0.00 0.00 0.00 56 1010.0
20260506140532 17 137 8.0 20.9 0.00 0.00 0.00 55 1010.1
20260506140036 17 89 8.0 19.3 0.00 0.00 0.00 55 1010.2
20260506135528 17 123 9.7 19.3 0.00 0.00 0.00 55 1010.0
20260506135032 17 221 8.0 16.1 0.00 0.00 0.00 55 1010.0
20260506134527 17 107 6.4 17.7 0.00 0.00 0.00 56 1010.2
20260506134028 17 99 6.4 22.5 0.00 0.00 0.00 56 1010.3
20260506133525 16 138 9.7 22.5 0.00 0.00 0.00 56 1010.4
20260506133025 16 96 4.8 19.3 0.00 0.00 0.00 56 1010.3
20260506132525 17 211 9.7 27.4 0.00 0.00 0.00 55 1010.2
20260506132025 17 96 6.4 27.4 0.00 0.00 0.00 55 1010.1
20260506131524 17 124 8.0 19.3 0.00 0.00 0.00 57 1010.0
20260506131026 16 105 6.4 19.3 0.00 0.00 0.00 57 1009.9
20260506130525 16 144 9.7 19.3 0.00 0.00 0.00 57 1010.0
20260506130023 16 202 4.8 17.7 0.00 0.00 0.00 57 1009.9
20260506125519 16 101 4.8 16.1 0.00 0.00 0.00 57 1010.0
20260506125019 16 78 6.4 16.1 0.00 0.00 0.00 57 1010.0
20260506124519 16 219 8.0 16.1 0.00 0.00 0.00 57 1010.1
20260506124019 16 104 4.8 22.5 0.00 0.00 0.00 57 1010.0
20260506123519 16 161 11.3 22.5 0.00 0.00 0.00 57 1010.1
20260506123018 16 133 6.4 22.5 0.00 0.00 0.00 58 1010.1
20260506122517 16 207 8.0 17.7 0.00 0.00 0.00 58 1010.4
20260506122017 16 142 8.0 19.3 0.00 0.00 0.00 59 1010.4
20260506121516 16 165 4.8 17.7 0.00 0.00 0.00 59 1010.3
20260506121015 16 119 4.8 14.5 0.00 0.00 0.00 60 1010.3
20260506120514 15 146 6.4 16.1 0.00 0.00 0.00 61 1010.5
20260506120013 15 76 6.4 25.7 0.00 0.00 0.00 62 1010.6
20260506115512 15 148 9.7 25.7 0.00 0.00 0.00 63 1010.6
20260506115012 15 140 8.0 19.3 0.00 0.00 0.00 65 1010.5
20260506114513 15 290 6.4 19.3 0.00 0.00 0.00 65 1010.5
20260506114012 14 163 4.8 16.1 0.00 0.00 0.00 67 1010.6
20260506113512 14 134 4.8 19.3 0.00 0.00 0.00 67 1010.4
20260506113015 14 147 3.2 16.1 0.00 0.00 0.00 68 1010.2
20260506112512 13 92 3.2 16.1 0.00 0.00 0.00 69 1010.3
20260506112009 13 110 8.0 17.7 0.00 0.00 0.00 68 1010.1
20260506111508 13 117 4.8 17.7 0.00 0.00 0.00 68 1010.4
20260506111009 13 154 8.0 16.1 0.00 0.00 0.00 68 1010.4
20260506110506 13 134 8.0 16.1 0.00 0.00 0.00 68 1010.5
20260506110006 13 157 8.0 17.7 0.00 0.00 0.00 68 1010.5
20260506105507 13 119 6.4 19.3 0.00 0.00 0.00 68 1010.5
20260506105004 13 187 8.0 20.9 0.00 0.00 0.00 67 1010.3
20260506104502 13 89 4.8 20.9 0.00 0.00 0.00 67 1010.3
20260506104001 13 221 6.4 14.5 0.00 0.00 0.00 67 1010.2
20260506103502 13 86 3.2 16.1 0.00 0.00 0.00 67 1010.1
20260506103002 13 132 4.8 16.1 0.00 0.00 0.00 67 1010.3
20260506102600 13 125 6.4 14.5 0.00 0.00 0.00 67 1010.2
20260506102100 13 95 6.4 20.9 0.00 0.00 0.00 67 1010.2
20260506101559 13 142 6.4 20.9 0.00 0.00 0.00 67 1010.2
20260506101057 13 163 6.4 20.9 0.00 0.00 0.00 67 1010.1
20260506100556 13 125 8.0 19.3 0.00 0.00 0.00 67 1010.1
20260506100056 13 204 8.0 20.9 0.00 0.00 0.00 67 1010.3
20260506095555 13 101 8.0 19.3 0.00 0.00 0.00 66 1010.1
20260506095055 13 128 4.8 19.3 0.00 0.00 0.00 66 1010.2
20260506094555 13 74 4.8 16.1 0.00 0.00 0.00 66 1010.1
20260506094054 13 151 4.8 17.7 0.00 0.00 0.00 66 1010.1
20260506093554 13 123 3.2 12.9 0.00 0.00 0.00 66 1010.0
20260506093109 13 114 4.8 17.7 0.00 0.00 0.00 66 1010.1
20260506092554 13 143 6.4 17.7 0.00 0.00 0.00 66 1010.1
20260506092054 13 226 4.8 17.7 0.00 0.00 0.00 66 1010.0
20260506091553 13 169 8.0 17.7 0.00 0.00 0.00 66 1010.0
20260506091053 13 92 6.4 17.7 0.00 0.00 0.00 66 1010.1
20260506090550 13 167 4.8 17.7 0.00 0.00 0.00 66 1010.2
20260506090056 13 76 8.0 17.7 0.00 0.00 0.00 66 1010.3
20260506085550 13 82 8.0 17.7 0.00 0.00 0.00 66 1010.3
20260506085049 13 134 4.8 16.1 0.00 0.00 0.00 66 1010.4
20260506084549 13 110 8.0 16.1 0.00 0.00 0.00 65 1010.4
20260506084048 13 84 4.8 19.3 0.00 0.00 0.00 65 1010.5
20260506083548 12 109 6.4 17.7 0.00 0.00 0.00 65 1010.5
20260506083048 12 98 6.4 14.5 0.00 0.00 0.00 65 1010.4
20260506082546 12 131 6.4 17.7 0.00 0.00 0.00 65 1010.5
20260506082046 13 143 4.8 14.5 0.00 0.00 0.00 65 1010.5
20260506081546 13 108 6.4 19.3 0.00 0.00 0.00 65 1010.5
20260506081046 13 134 4.8 17.7 0.00 0.00 0.00 65 1010.4
20260506080545 13 183 6.4 20.9 0.00 0.00 0.00 65 1010.4
20260506073142 13 196 6.4 20.9 0.00 0.00 0.00 64 1010.5
20260506072541 13 95 4.8 16.1 0.00 0.00 0.00 64 1010.7
20260506072042 13 126 8.0 16.1 0.00 0.00 0.00 64 1010.8
20260506071540 13 95 6.4 17.7 0.00 0.00 0.00 63 1010.8
20260506071038 13 133 8.0 20.9 0.00 0.00 0.00 63 1010.8
20260506070538 13 80 8.0 22.5 0.00 0.00 0.00 63 1010.7
20260506062030 14 94 3.2 20.9 0.00 0.00 0.00 61 1010.7
20260506061532 14 180 6.4 20.9 0.00 0.00 0.00 61 1010.7
20260506061029 14 152 6.4 17.7 0.00 0.00 0.00 60 1010.7
20260506060527 14 101 4.8 14.5 0.00 0.00 0.00 60 1010.7
20260506051020 15 109 8.0 22.5 0.00 0.00 0.00 58 1011.0
20260506050521 15 209 8.0 19.3 0.00 0.00 0.00 58 1011.0
20260506045020 15 152 8.0 20.9 0.00 0.00 0.00 58 1011.0
20260506044517 15 216 9.7 19.3 0.00 0.00 0.00 58 1010.9
20260506044016 15 209 8.0 29.0 0.00 0.00 0.00 58 1010.9
20260506043516 15 128 9.7 29.0 0.00 0.00 0.00 58 1011.0
20260506043015 15 189 9.7 22.5 0.00 0.00 0.00 58 1011.0
20260506042514 15 119 6.4 17.7 0.00 0.00 0.00 58 1011.0
20260506042014 15 128 8.0 16.1 0.00 0.00 0.00 58 1011.0
20260506041513 15 152 9.7 19.3 0.00 0.00 0.00 58 1010.9
20260506041010 16 129 8.0 29.0 0.00 0.00 0.00 58 1011.1
20260506040511 16 129 9.7 29.0 0.00 0.00 0.00 58 1011.2
20260506040008 16 103 8.0 17.7 0.00 0.00 0.00 58 1011.2
20260506035508 16 154 8.0 24.1 0.00 0.00 0.00 58 1011.1
20260506035008 16 150 4.8 24.1 0.00 0.00 0.00 58 1011.1
20260506034508 16 251 6.4 20.9 0.00 0.00 0.00 58 1011.1
20260506034009 16 167 11.3 20.9 0.00 0.00 0.00 58 1011.0
20260506033507 16 125 8.0 27.4 0.00 0.00 0.00 58 1011.1
20260506033007 16 110 4.8 27.4 0.00 0.00 0.00 58 1010.9
20260506032507 16 115 8.0 20.9 0.00 0.00 0.00 58 1011.0
20260506032007 16 151 8.0 19.3 0.00 0.00 0.00 58 1010.9
20260506031507 16 133 11.3 25.7 0.00 0.00 0.00 58 1010.9
20260506031008 16 246 6.4 20.9 0.00 0.00 0.00 58 1011.1
20260506030506 16 67 9.7 25.7 0.00 0.00 0.00 58 1011.1
20260506030006 16 223 11.3 25.7 0.00 0.00 0.00 58 1011.1
20260506025511 16 243 12.9 29.0 0.00 0.00 0.00 57 1011.1
20260506025008 16 84 11.3 22.5 0.00 0.00 0.00 57 1011.2
20260506024507 16 205 6.4 24.1 0.00 0.00 0.00 57 1011.2
20260506024006 16 171 8.0 24.1 0.00 0.00 0.00 57 1011.0
20260506023506 16 109 11.3 22.5 0.00 0.00 0.00 56 1011.0
20260506023005 16 214 9.7 24.1 0.00 0.00 0.00 56 1011.0
20260506022505 16 136 11.3 24.1 0.00 0.00 0.00 56 1011.1
20260506022005 16 232 12.9 29.0 0.00 0.00 0.00 56 1011.1
20260506021505 16 173 9.7 33.8 0.00 0.00 0.00 55 1011.1
20260506021006 17 166 14.5 33.8 0.00 0.00 0.00 55 1010.9
20260506020504 17 80 4.8 25.7 0.00 0.00 0.00 55 1011.1
20260506020004 17 93 11.3 24.1 0.00 0.00 0.00 54 1011.1
20260506015505 17 146 8.0 27.4 0.00 0.00 0.00 54 1011.0
20260506015005 17 196 9.7 27.4 0.00 0.00 0.00 54 1010.9
20260506014507 17 77 6.4 25.7 0.00 0.00 0.00 53 1010.9
20260506014004 17 176 9.7 25.7 0.00 0.00 0.00 53 1010.9
20260506013504 17 135 9.7 24.1 0.00 0.00 0.00 53 1010.8
20260506013006 17 133 9.7 24.1 0.00 0.00 0.00 52 1010.8
20260506012504 17 151 8.0 22.5 0.00 0.00 0.00 52 1010.7
20260506012004 17 213 8.0 27.4 0.00 0.00 0.00 52 1010.5
20260506011503 18 133 11.3 27.4 0.00 0.00 0.00 52 1010.6
20260506011003 18 222 9.7 30.6 0.00 0.00 0.00 52 1010.6
20260506010503 18 295 11.3 30.6 0.00 0.00 0.00 52 1010.7
20260506010003 18 240 12.9 30.6 0.00 0.00 0.00 51 1010.4
20260506005502 18 238 8.0 32.2 0.00 0.00 0.00 51 1010.3
20260506005002 18 169 11.3 32.2 0.00 0.00 0.00 51 1010.2
20260506004504 18 61 6.4 17.7 0.00 0.00 0.00 51 1010.2
20260506004002 18 148 4.8 19.3 0.00 0.00 0.00 51 1010.2
20260506003502 18 178 4.8 25.7 0.00 0.00 0.00 51 1010.3
20260506003002 18 150 12.9 25.7 0.00 0.00 0.00 50 1010.0
20260506002502 18 95 6.4 22.5 0.00 0.00 0.00 50 1010.1
20260506002002 18 119 4.8 27.4 0.00 0.00 0.00 50 1010.0
20260506001502 18 167 14.5 30.6 0.00 0.00 0.00 50 1010.1
20260506001002 18 177 9.7 25.7 0.00 0.00 0.00 50 1010.0
20260506000501 18 211 9.7 19.3 0.00 0.00 0.00 50 1009.9
20260506000000 18 146 8.0 20.9 0.00 0.00 0.00 50 1009.9
20260505235501 18 142 4.8 20.9 0.00 0.00 0.00 49 1009.7
20260505235002 18 142 8.0 22.5 0.00 0.00 0.00 49 1009.7
20260505234617 18 234 4.8 27.4 0.00 0.00 0.00 49 1009.7
20260505234101 18 44 6.4 27.4 0.00 0.00 0.00 49 1009.7
20260505233600 18 136 9.7 20.9 0.00 0.00 0.00 49 1009.4
20260505233100 18 202 6.4 20.9 0.00 0.00 0.00 49 1009.4
20260505232600 18 66 6.4 24.1 0.00 0.00 0.00 48 1009.4
20260505232100 19 229 11.3 29.0 0.00 0.00 0.00 48 1009.2
20260505231601 19 209 6.4 29.0 0.00 0.00 0.00 48 1009.1
20260505231059 19 144 8.0 20.9 0.00 0.00 0.00 48 1009.2
20260505230559 19 219 6.4 22.5 0.00 0.00 0.00 47 1009.1
20260505230059 20 93 12.9 24.1 0.00 0.00 0.00 47 1009.1
20260505225602 20 170 3.2 24.1 0.00 0.00 0.00 46 1009.0
20260505225059 20 145 4.8 20.9 0.00 0.00 0.00 46 1009.0
20260505224559 20 219 6.4 27.4 0.00 0.00 0.00 45 1008.8
20260505224102 20 174 11.3 27.4 0.00 0.00 0.00 45 1009.0
20260505223558 21 217 11.3 25.7 0.00 0.00 0.00 45 1008.9
20260505223104 21 294 3.2 22.5 0.00 0.00 0.00 45 1008.9
20260505222558 21 82 4.8 22.5 0.00 0.00 0.00 44 1008.8
20260505222058 21 198 8.0 24.1 0.00 0.00 0.00 44 1008.6
20260505221602 21 140 9.7 32.2 0.00 0.00 0.00 45 1008.7
20260505221057 21 126 9.7 32.2 0.00 0.00 0.00 44 1008.9
20260505220558 21 129 9.7 25.7 0.00 0.00 0.00 45 1008.8
20260505220107 21 147 11.3 27.4 0.00 0.00 0.00 44 1008.7
20260505215557 21 161 8.0 20.9 0.00 0.00 0.00 45 1008.7
20260505215057 21 119 9.7 27.4 0.00 0.00 0.00 44 1008.9
20260505214607 21 132 11.3 27.4 0.00 0.00 0.00 44 1008.7
20260505214056 21 150 8.0 27.4 0.00 0.00 0.00 45 1008.6
20260505213555 21 144 6.4 27.4 0.00 0.00 0.00 45 1008.6
20260505213056 21 154 9.7 32.2 0.00 0.00 0.00 45 1008.8
20260505212501 21 225 11.3 30.6 0.00 0.00 0.00 44 1008.8
20260505212003 21 197 6.4 25.7 0.00 0.00 0.00 44 1008.5
20260505211508 21 128 9.7 27.4 0.00 0.00 0.00 45 1008.6
20260505211011 21 96 11.3 20.9 0.00 0.00 0.00 45 1008.5
20260505210554 21 49 4.8 20.9 0.00 0.00 0.00 44 1008.4
20260505210018 21 34 6.4 24.1 0.00 0.00 0.00 44 1008.4
20260505205558 21 101 8.0 24.1 0.00 0.00 0.00 44 1008.4
20260505205100 21 123 9.7 24.1 0.00 0.00 0.00 44 1008.5
20260505204506 22 117 9.7 24.1 0.00 0.00 0.00 44 1008.6
20260505204008 22 146 12.9 27.4 0.00 0.00 0.00 44 1008.6
20260505203510 22 141 6.4 22.5 0.00 0.00 0.00 44 1008.5
20260505203056 22 128 6.4 22.5 0.00 0.00 0.00 44 1008.6
20260505202556 22 114 8.0 20.9 0.00 0.00 0.00 43 1008.6
20260505202021 22 140 9.7 25.7 0.00 0.00 0.00 43 1008.7
20260505201554 22 132 9.7 25.7 0.00 0.00 0.00 43 1008.6
20260505201059 22 111 9.7 24.1 0.00 0.00 0.00 43 1008.8
20260505200508 23 226 8.0 22.5 0.00 0.00 0.00 42 1008.8
20260505200007 23 157 8.0 22.5 0.00 0.00 0.00 42 1008.7
20260505195556 23 253 9.7 25.7 0.00 0.00 0.00 43 1008.6
20260505195057 23 132 9.7 20.9 0.00 0.00 0.00 43 1008.7
20260505194501 23 225 8.0 20.9 0.00 0.00 0.00 43 1008.9
20260505194006 23 127 14.5 20.9 0.00 0.00 0.00 43 1009.1
20260505193512 23 229 8.0 17.7 0.00 0.00 0.00 43 1009.1
20260505193053 23 147 8.0 17.7 0.00 0.00 0.00 44 1009.0
20260505192558 23 131 9.7 17.7 0.00 0.00 0.00 43 1009.2
20260505192020 22 207 9.7 20.9 0.00 0.00 0.00 44 1009.3
20260505191603 22 84 9.7 24.1 0.00 0.00 0.00 43 1009.4
20260505191018 22 155 9.7 24.1 0.00 0.00 0.00 43 1009.4
20260505190558 22 205 12.9 24.1 0.00 0.00 0.00 43 1009.6
20260505190004 22 42 11.3 22.5 0.00 0.00 0.00 43 1009.7
20260505185506 22 138 12.9 22.5 0.00 0.00 0.00 43 1009.7
20260505185009 23 127 11.3 24.1 0.00 0.00 0.00 42 1009.9
20260505184554 23 114 11.3 24.1 0.00 0.00 0.00 42 1010.0
20260505184057 23 226 8.0 24.1 0.00 0.00 0.00 42 1010.0
20260505183600 23 144 9.7 24.1 0.00 0.00 0.00 43 1010.1
20260505183003 23 150 9.7 22.5 0.00 0.00 0.00 44 1009.9
20260505182507 22 96 9.7 24.1 0.00 0.00 0.00 45 1009.9
20260505182013 22 151 9.7 24.1 0.00 0.00 0.00 45 1010.0
20260505181639 22 95 9.7 25.7 0.00 0.00 0.00 45 1010.0
20260505181017 22 167 14.5 24.1 0.00 0.00 0.00 47 1010.1
20260505180558 22 115 9.7 24.1 0.00 0.00 0.00 45 1010.3
20260505180002 22 107 9.7 25.7 0.00 0.00 0.00 46 1010.3
20260505175503 21 192 9.7 25.7 0.00 0.00 0.00 47 1010.3
20260505175009 21 271 8.0 29.0 0.00 0.00 0.00 47 1010.4
20260505174510 22 165 12.9 29.0 0.00 0.00 0.00 46 1010.4
20260505174055 21 178 9.7 25.7 0.00 0.00 0.00 46 1010.5
20260505173556 22 186 14.5 25.7 0.00 0.00 0.00 46 1010.4
20260505173002 22 288 8.0 24.1 0.00 0.00 0.00 45 1010.6
20260505172504 22 43 9.7 20.9 0.00 0.00 0.00 44 1010.5
20260505172008 22 215 9.7 29.0 0.00 0.00 0.00 45 1010.5
20260505171601 22 190 14.5 30.6 0.00 0.00 0.00 44 1010.5
20260505171100 22 209 14.5 30.6 0.00 0.00 0.00 43 1010.5
20260505170504 23 98 9.7 22.5 0.00 0.00 0.00 42 1010.5
20260505170006 23 144 11.3 22.5 0.00 0.00 0.00 43 1010.6
20260505165511 23 84 6.4 24.1 0.00 0.00 0.00 43 1010.5
20260505165054 23 103 11.3 24.1 0.00 0.00 0.00 42 1010.6
20260505164558 23 62 4.8 19.3 0.00 0.00 0.00 42 1010.5
20260505164003 22 133 9.7 20.9 0.00 0.00 0.00 44 1010.7
20260505163503 23 208 8.0 20.9 0.00 0.00 0.00 45 1010.8
20260505163010 23 114 8.0 19.3 0.00 0.00 0.00 43 1010.8
20260505162510 23 117 6.4 17.7 0.00 0.00 0.00 45 1011.0
20260505162055 23 74 9.7 19.3 0.00 0.00 0.00 43 1010.9
20260505161518 23 120 8.0 19.3 0.00 0.00 0.00 43 1011.0
20260505161059 23 143 8.0 24.1 0.00 0.00 0.00 43 1010.9
20260505160601 23 203 11.3 24.1 0.00 0.00 0.00 41 1010.9
20260505153033 22 140 6.4 25.7 0.00 0.00 0.00 43 1011.2
20260505152556 22 194 11.3 25.7 0.00 0.00 0.00 43 1011.4
20260505152058 22 133 4.8 14.5 0.00 0.00 0.00 44 1011.5
20260505151507 22 144 8.0 19.3 0.00 0.00 0.00 44 1011.5
20260505151009 22 263 11.3 19.3 0.00 0.00 0.00 43 1011.6
20260505150553 22 264 8.0 19.3 0.00 0.00 0.00 43 1011.6